User: anonymous   Login
Location: Natural Bridges National Monument
(37.6093°N, 109.9767°W)
Time: 06:31:31
(UTC-06:00)
Language:

Cosmos 1727 Rocket - Orbit

View from above orbital plane
View from above orbital plane
View from above satellite
View from above satellite

Ground track
Ground track

The orbit data is extracted from the following two-line orbital elements,

1 16511U 86008B   15114.09399326  .00000051  00000-0  36770-4 0  9992
2 16511 082.9437 082.1323 0023363 318.7384 090.5228 13.75794454468327
Epoch (UTC): 24 April 2015 02:15:21
Eccentricity: 0.0023363
inclination: 82.9437°
perigee height: 961 km
apogee height: 996 km
right ascension of ascending node: 82.1323°
argument of perigee: 318.7384°
revolutions per day: 13.75794454
mean anomaly at epoch: 90.5228°
orbit number at epoch: 46832

The dashed part of the orbit path shows where the satellite is in the earth's shadow,  

DLR